Location: Eschertshofen
(49.3064°N, 11.5756°E)
Time: 06:47:03
(UTC+00:00)

Cosmos 2098 Rocket - Pass Details

Date: 18 September 2020
Orbit: 366 x 1185 km, 82.9° (Epoch: 19 October)

Event Time Altitude Azimuth Distance (km) Brightness Sun altitude
Rises 20:52:33 0° 349° (NNW) 4,072 8.1 -31.5°
Reaches altitude 10° 20:55:22 10° 347° (NNW) 3,067 7.3 -31.8°
Enters shadow 21:02:27 72° 275° (W) 1,110 4.2 -32.6°
